Dewpoint
3 4 4 2 1 0 0 -0 -0 1 -1 -0 1 0 -0 1 2 -0 -2 -4 -4 -5 -4 -4 -3 -5 -4 -2 -2 -2 -1 -0 1 2 -1 -3 -4 -6 -6 -7 -8 -7 -7 -8 -7 -7 -7 -8 -8 -7 -5 -6 -5 -5 -4 -4 -4 -4 -3 -3 -4 -3 -2 -3 -5 -6 -5 -3 -3 -2 -3 -3 -0 1 2 4 4 3 5 1 1 1 2 1 -0
2 1 1 0 -1 -1 -1 -1 -1 -1 -2 -2 -1 -1 -1 -1 0 -1 -3 -3 -4 -5 -5 -4 -4 -6 -5 -4 -3 -3 -2 -1 0 1 -0 -3 -5 -6 -7 -7 -8 -8 -8 -8 -8 -7 -7 -8 -8 -7 -6 -7 -6 -6 -5 -5 -5 -4 -4 -4 -3 -3 -2 -3 -4 -5 -6 -4 -3 -3 -3 -3 -1 -1 2 2 3 3 1 -1 2 2 2 -1 -0
2 0 -1 -1 -2 -2 -2 -2 -3 -3 -3 -3 -3 -2 -3 -2 -0 -1 -2 -3 -4 -4 -6 -5 -5 -6 -6 -5 -5 -4 -3 -3 -2 -1 -0 -2 -5 -6 -7 -8 -8 -9 -9 -9 -8 -7 -8 -7 -7 -7 -7 -7 -7 -6 -5 -5 -4 -4 -4 -3 -3 -3 -3 -2 -3 -4 -5 -4 -3 -3 -3 -3 -2 -1 -2 1 3 1 -0 0 3 1 0 -1 1
1 -1 -2 -2 -2 -3 -3 -3 -4 -4 -4 -4 -5 -4 -4 -4 -2 -3 -4 -3 -5 -5 -6 -6 -6 -7 -7 -7 -7 -6 -5 -4 -4 -3 -2 -2 -4 -6 -8 -8 -8 -9 -9 -9 -8 -7 -7 -7 -7 -7 -7 -8 -7 -6 -6 -6 -5 -4 -4 -4 -3 -3 -3 -3 -3 -3 -3 -4 -3 -3 -2 -4 -3 -4 -4 -0 0 -0 -0 1 3 1 -1 -0 -1
-1 -2 -3 -3 -3 -4 -4 -4 -5 -5 -5 -4 -5 -5 -4 -4 -4 -4 -5 -5 -5 -6 -7 -7 -7 -7 -8 -8 -8 -7 -7 -5 -5 -5 -2 -0 -3 -6 -8 -9 -9 -9 -9 -9 -7 -8 -7 -8 -7 -7 -7 -8 -7 -7 -6 -7 -6 -5 -4 -4 -4 -3 -2 -2 -2 -2 -3 -4 -4 -3 -3 -3 -3 -5 -4 -2 -3 -2 -1 1 0 -1 -1 -1 0
-2 -3 -4 -5 -5 -5 -5 -5 -6 -6 -6 -6 -6 -5 -4 -5 -6 -5 -5 -6 -6 -7 -8 -8 -7 -8 -9 -8 -8 -7 -7 -7 -6 -5 -2 1 -3 -6 -8 -9 -9 -9 -9 -9 -9 -8 -8 -8 -8 -7 -7 -8 -8 -7 -7 -8 -7 -6 -5 -5 -4 -3 -3 -3 -3 -4 -4 -5 -5 -5 -4 -5 -5 -4 -5 -4 -4 -4 -3 -2 -2 -2 -2 -2 -1
-3 -4 -5 -6 -6 -6 -6 -6 -5 -6 -6 -6 -6 -6 -6 -6 -6 -6 -5 -6 -7 -7 -8 -9 -8 -8 -9 -8 -8 -8 -8 -8 -6 -4 -2 1 -4 -8 -8 -9 -9 -9 -10 -10 -10 -10 -10 -10 -9 -9 -8 -8 -8 -8 -8 -8 -7 -6 -5 -5 -4 -4 -3 -4 -5 -5 -5 -6 -6 -6 -6 -5 -5 -7 -7 -7 -6 -5 -5 -5 -6 -5 -4 -3 -4
-5 -6 -6 -7 -7 -7 -7 -7 -7 -7 -7 -7 -8 -7 -7 -7 -6 -6 -6 -7 -7 -8 -8 -9 -9 -9 -9 -9 -8 -7 -9 -8 -6 -4 -3 1 -5 -9 -9 -9 -10 -10 -10 -10 -10 -10 -11 -11 -10 -9 -8 -9 -9 -8 -9 -8 -7 -7 -6 -5 -5 -4 -3 -4 -6 -6 -6 -7 -7 -7 -7 -7 -8 -8 -7 -6 -6 -6 -5 -6 -7 -7 -6 -5 -4
-7 -7 -7 -8 -8 -8 -8 -8 -8 -8 -8 -9 -9 -8 -8 -8 -7 -7 -7 -7 -7 -7 -8 -9 -10 -10 -10 -10 -9 -9 -9 -8 -5 -4 -3 1 -6 -9 -9 -10 -10 -10 -10 -11 -11 -11 -11 -11 -11 -9 -8 -8 -7 -7 -7 -6 -7 -7 -6 -5 -5 -4 -3 -4 -6 -6 -6 -7 -7 -7 -8 -8 -8 -8 -9 -8 -7 -7 -5 -5 -7 -7 -7 -7 -6
-9 -9 -9 -8 -8 -9 -9 -9 -9 -9 -9 -9 -9 -9 -8 -8 -7 -7 -8 -7 -8 -7 -8 -9 -10 -10 -11 -11 -10 -9 -9 -8 -5 -2 -1 1 -6 -9 -9 -9 -9 -10 -10 -11 -11 -11 -11 -12 -11 -9 -9 -9 -8 -8 -7 -6 -5 -6 -7 -6 -6 -5 -4 -4 -6 -6 -6 -7 -8 -8 -9 -10 -9 -8 -8 -7 -6 -5 -6 -6 -7 -8 -8 -9 -8
-11 -11 -10 -10 -9 -10 -9 -10 -10 -10 -10 -10 -10 -10 -9 -9 -8 -8 -8 -8 -8 -8 -8 -10 -10 -10 -11 -11 -11 -10 -10 -7 -4 -1 2 6 -4 -9 -10 -9 -9 -10 -10 -11 -12 -11 -11 -12 -12 -10 -10 -10 -10 -9 -8 -6 -6 -6 -6 -6 -5 -6 -5 -5 -6 -6 -6 -7 -7 -8 -9 -9 -8 -8 -7 -6 -5 -5 -5 -5 -7 -9 -10 -11 -12
-12 -12 -11 -11 -10 -11 -10 -10 -11 -11 -11 -11 -10 -10 -10 -10 -9 -8 -8 -9 -8 -8 -9 -10 -10 -10 -11 -11 -11 -11 -11 -7 -4 -2 8 11 -1 -8 -10 -10 -10 -10 -10 -11 -11 -11 -11 -12 -12 -12 -13 -12 -12 -12 -9 -7 -7 -7 -7 -7 -7 -5 -4 -5 -6 -6 -6 -7 -8 -9 -9 -9 -8 -7 -6 -6 -5 -4 -4 -6 -9 -10 -10 -11 -10
-13 -12 -12 -12 -12 -12 -12 -12 -12 -12 -12 -12 -11 -11 -11 -10 -9 -9 -9 -8 -9 -9 -9 -10 -10 -10 -11 -11 -11 -11 -12 -7 -4 -3 5 11 8 -7 -10 -11 -11 -12 -12 -11 -11 -11 -11 -12 -12 -12 -13 -11 -11 -12 -11 -9 -7 -8 -9 -9 -9 -8 -7 -6 -5 -6 -6 -7 -7 -8 -8 -8 -8 -6 -4 -3 -2 -3 -5 -8 -9 -9 -9 -9 -8
-13 -13 -13 -13 -13 -13 -13 -14 -14 -14 -13 -12 -12 -12 -12 -10 -10 -9 -8 -8 -8 -9 -10 -9 -10 -11 -11 -11 -11 -11 -12 -7 -5 -4 -1 10 5 -7 -12 -12 -13 -13 -12 -12 -12 -11 -12 -12 -12 -12 -13 -13 -13 -11 -10 -9 -10 -12 -13 -13 -13 -11 -8 -8 -8 -6 -5 -7 -8 -8 -7 -6 -5 -3 -1 -0 -2 -4 -6 -8 -7 -9 -9 -9 -8
-14 -14 -14 -14 -14 -15 -14 -15 -15 -14 -13 -13 -12 -13 -12 -11 -10 -8 -7 -8 -8 -8 -8 -9 -10 -10 -11 -11 -10 -11 -11 -7 -6 -4 -4 10 3 -9 -12 -13 -13 -13 -12 -12 -12 -12 -12 -12 -11 -12 -13 -13 -12 -10 -10 -10 -11 -13 -14 -14 -14 -13 -12 -12 -11 -9 -8 -8 -7 -7 -5 -2 -1 -1 -1 -1 -2 -4 -5 -5 -6 -8 -8 -9 -9
-15 -15 -16 -16 -17 -15 -16 -15 -15 -14 -14 -14 -14 -13 -12 -11 -11 -9 -7 -8 -8 -8 -8 -9 -9 -10 -11 -12 -11 -11 -11 -7 -6 -5 -4 9 -6 -11 -13 -13 -14 -13 -13 -12 -12 -12 -12 -11 -11 -12 -13 -13 -10 -9 -8 -8 -12 -14 -15 -15 -14 -14 -13 -10 -8 -6 -6 -6 -6 -4 -2 -1 4 -1 -0 -2 -5 -6 -5 -6 -8 -10 -10 -12 -13
-16 -17 -17 -18 -17 -17 -16 -16 -16 -15 -15 -15 -14 -13 -13 -11 -10 -7 -9 -8 -9 -9 -9 -10 -9 -10 -11 -11 -11 -11 -12 -9 -7 -6 -5 6 -5 -11 -13 -13 -14 -14 -13 -13 -12 -12 -12 -11 -12 -12 -13 -12 -9 -8 -7 -8 -12 -14 -15 -16 -15 -15 -14 -12 -8 -7 -5 -4 -4 6 6 6 6 6 6 -1 -4 -5 -7 -9 -10 -9 -11 -14 -14
-18 -18 -18 -17 -17 -17 -17 -16 -16 -15 -16 -16 -15 -14 -12 -10 -10 -8 -9 -9 -10 -10 -9 -9 -10 -9 -11 -13 -12 -12 -12 -9 -8 -6 -5 -5 -7 -11 -12 -13 -15 -14 -14 -13 -13 -12 -12 -11 -10 -12 -12 -11 -9 -8 -6 -7 -11 -13 -15 -16 -16 -16 -14 -12 -11 -10 -7 -7 -7 -6 -5 -5 -5 -5 -4 -4 -4 -4 -7 -9 -9 -9 -12 -12 -14
-18 -18 -18 -18 -18 -18 -16 -18 -17 -16 -18 -16 -16 -15 -12 -10 -9 -8 -8 -11 -11 -10 -8 -9 -10 -10 -11 -12 -7 -11 -13 -10 -8 -7 -6 -5 -6 -10 -12 -13 -14 -14 -14 -14 -13 -13 -13 -12 -11 -11 -11 -10 -9 -7 -7 -8 -12 -14 -15 -15 -15 -15 -13 -11 -12 -12 -11 -11 -11 -10 -9 -7 -7 -8 -6 -5 -5 -5 -6 -7 -8 -9 -12 -12 -12
-18 -18 -18 -18 -21 -19 -17 -18 -17 -17 -20 -20 -15 -14 -11 -11 -11 -10 -10 -11 -9 -11 -10 -10 -11 -10 -9 -12 -13 -12 -12 -12 -9 -8 -7 -7 -6 -9 -11 -13 -13 -14 -14 -14 -14 -14 -13 -13 -12 -11 -11 -10 -9 -7 -6 -7 -11 -13 -14 -14 -13 -14 -11 -11 -11 -11 -12 -12 -12 -11 -10 -9 -9 -8 -8 -8 -7 -6 -6 -7 -7 -8 -9 -11 -11
-18 -20 -22 -21 -19 -16 -15 -18 -19 -21 -16 -18 -17 -15 -15 -13 -12 -12 -11 -9 -12 -10 -12 -11 -12 -10 -9 -11 -11 -12 -10 -10 -10 -8 -8 -7 -7 -8 -11 -12 -12 -12 -14 -14 -14 -14 -14 -14 -13 -12 -10 -9 -8 -7 -7 -7 -9 -11 -13 -12 -11 -10 -9 -12 -12 -10 -13 -12 -12 -12 -11 -11 -11 -10 -10 -9 -9 -8 -8 -7 -7 -7 -7 -9 -10
-22 -21 -21 -20 -19 -18 -17 -15 -18 -19 -18 -15 -19 -17 -14 -13 -15 -16 -12 -13 -13 -14 -13 -13 -13 -12 -10 -10 -13 -12 -9 -8 -10 -9 -9 -8 -8 -8 -10 -12 -10 -12 -14 -14 -14 -14 -14 -14 -13 -12 -10 -9 -8 -7 -7 -8 -8 -10 -10 -8 -8 -9 -10 -11 -12 -13 -13 -13 -13 -13 -13 -13 -12 -12 -11 -11 -10 -9 -8 -8 -7 -6 -6 -6 -7
-21 -20 -19 -19 -17 -18 -17 -18 -18 -19 -18 -17 -19 -19 -16 -16 -15 -15 -14 -15 -14 -15 -15 -13 -13 -12 -12 -12 -12 -13 -12 -10 -8 -10 -9 -9 -9 -8 -9 -10 -9 -11 -13 -14 -15 -14 -13 -13 -12 -10 -9 -8 -7 -7 -8 -8 -9 -10 -8 -8 -9 -9 -10 -12 -12 -14 -14 -14 -14 -14 -14 -14 -13 -13 -12 -12 -11 -9 -9 -8 -7 -7 -6 -6 -6
-19 -19 -16 -19 -18 -18 -18 -18 -19 -19 -18 -18 -18 -19 -17 -15 -15 -15 -14 -14 -13 -13 -12 -12 -13 -14 -13 -13 -12 -12 -11 -11 -9 -10 -11 -10 -10 -9 -9 -10 -10 -12 -12 -14 -13 -13 -14 -13 -11 -9 -9 -7 -7 -8 -8 -9 -9 -9 -9 -10 -10 -10 -11 -12 -14 -14 -14 -14 -15 -15 -15 -14 -13 -13 -13 -12 -11 -9 -9 -8 -8 -8 -7 -7 -6
-19 -19 -19 -19 -18 -19 -19 -19 -19 -19 -19 -18 -19 -18 -18 -16 -15 -16 -14 -15 -14 -15 -13 -12 -13 -13 -14 -14 -13 -13 -12 -12 -13 -11 -12 -11 -11 -11 -10 -10 -11 -11 -12 -13 -12 -13 -11 -10 -10 -9 -8 -7 -7 -8 -9 -9 -9 -9 -9 -10 -10 -12 -12 -13 -14 -14 -15 -16 -15 -15 -15 -14 -13 -12 -11 -10 -10 -9 -10 -10 -9 -8 -7 -7 -7
-19 -19 -19 -18 -18 -18 -20 -20 -20 -18 -19 -17 -18 -18 -18 -15 -16 -16 -16 -16 -16 -15 -14 -13 -14 -14 -15 -15 -14 -14 -13 -13 -13 -14 -12 -12 -12 -11 -11 -11 -12 -11 -11 -12 -12 -11 -11 -11 -10 -10 -8 -9 -10 -11 -11 -11 -10 -10 -10 -11 -13 -13 -13 -13 -14 -15 -15 -15 -15 -15 -15 -14 -13 -12 -11 -11 -12 -12 -12 -11 -11 -11 -10 -10 -10
-19 -19 -19 -19 -19 -19 -20 -19 -18 -18 -19 -18 -17 -17 -16 -17 -17 -16 -18 -18 -18 -17 -16 -15 -15 -15 -16 -16 -15 -15 -15 -14 -14 -15 -14 -14 -14 -13 -13 -14 -13 -12 -13 -14 -13 -14 -13 -12 -11 -8 -8 -9 -10 -10 -10 -10 -12 -12 -13 -13 -13 -13 -13 -13 -13 -14 -15 -15 -15 -15 -14 -13 -12 -12 -13 -13 -13 -13 -11 -11 -11 -11 -11 -11 -11
-20 -19 -19 -19 -17 -19 -19 -14 -16 -18 -18 -18 -18 -19 -17 -18 -17 -18 -18 -20 -19 -19 -19 -17 -17 -17 -18 -17 -16 -16 -16 -16 -16 -15 -13 -13 -13 -13 -13 -14 -15 -15 -15 -14 -14 -13 -14 -11 -10 -12 -12 -13 -13 -14 -14 -14 -13 -13 -14 -14 -13 -13 -12 -11 -12 -14 -14 -14 -14 -14 -14 -14 -14 -14 -13 -14 -14 -13 -12 -12 -11 -12 -11 -11 -13
-19 -20 -20 -19 -19 -16 -17 -18 -18 -18 -18 -18 -18 -18 -20 -20 -19 -18 -19 -19 -18 -19 -19 -18 -17 -20 -19 -18 -18 -18 -17 -17 -16 -11 -11 -10 -11 -12 -13 -14 -14 -14 -12 -11 -12 -14 -13 -13 -13 -14 -14 -15 -15 -15 -15 -15 -15 -14 -15 -15 -14 -14 -14 -14 -15 -15 -14 -14 -14 -14 -14 -14 -14 -14 -14 -14 -14 -13 -12 -12 -11 -12 -12 -12 -13
-21 -20 -20 -21 -20 -19 -18 -18 -19 -18 -18 -18 -18 -17 -12 -10 -13 -20 -19 -13 -12 -12 -11 -16 -17 -17 -18 -18 -19 -18 -17 -15 -11 -10 -11 -10 -10 -10 -11 -11 -11 -11 -11 -10 -11 -14 -14 -15 -15 -15 -15 -16 -16 -16 -16 -16 -16 -16 -16 -14 -14 -15 -14 -14 -15 -15 -14 -14 -14 -14 -14 -14 -14 -14 -14 -14 -14 -13 -12 -11 -12 -12 -13 -13 -14
-19 -21 -20 -21 -19 -19 -18 -19 -18 -18 -18 -18 -18 -17 -14 -14 -8 -10 -11 -11 -12 -11 -11 -11 -11 -11 -13 -16 -15 -12 -11 -11 -11 -11 -10 -10 -10 -11 -11 -11 -11 -11 -10 -11 -14 -15 -15 -16 -16 -16 -16 -16 -16 -16 -16 -16 -16 -16 -16 -16 -16 -15 -15 -15 -15 -14 -14 -14 -14 -14 -14 -14 -14 -14 -14 -14 -14 -14 -14 -12 -12 -12 -13 -13 -14
-20 -21 -20 -20 -19 -19 -19 -19 -19 -18 -18 -18 -18 -17 -18 -15 -16 -8 -8 -9 -9 -9 -10 -10 -10 -11 -11 -12 -12 -15 -13 -12 -12 -11 -11 -11 -12 -12 -12 -12 -11 -10 -10 -10 -14 -16 -16 -17 -17 -17 -16 -17 -16 -16 -16 -17 -16 -16 -17 -17 -17 -16 -16 -16 -15 -14 -14 -14 -15 -14 -14 -14 -14 -14 -14 -14 -14 -14 -14 -14 -13 -14 -14 -14 -13
-23 -22 -22 -21 -20 -19 -19 -19 -18 -19 -19 -19 -19 -19 -19 -18 -18 -16 -14 -12 -9 -7 -8 -9 -9 -9 -9 -10 -11 -12 -12 -12 -12 -12 -12 -12 -12 -11 -12 -12 -11 -10 -9 -14 -20 -17 -17 -17 -17 -17 -17 -17 -17 -17 -16 -16 -16 -16 -17 -17 -17 -16 -16 -15 -14 -14 -14 -14 -14 -15 -14 -14 -14 -14 -14 -14 -15 -15 -14 -14 -14 -14 -14 -15 -14
-23 -21 -21 -21 -21 -20 -19 -18 -19 -19 -19 -19 -19 -19 -19 -20 -20 -19 -16 -16 -15 -13 -9 -7 -8 -9 -9 -10 -11 -11 -12 -12 -12 -12 -12 -11 -11 -11 -12 -13 -11 -9 -12 -16 -16 -17 -17 -17 -17 -17 -17 -17 -16 -16 -17 -17 -16 -16 -17 -17 -17 -16 -15 -15 -15 -15 -15 -15 -15 -14 -14 -14 -14 -15 -15 -15 -15 -15 -15 -15 -15 -15 -15 -15 -15
-22 -19 -18 -18 -21 -20 -19 -18 -18 -18 -19 -19 -20 -20 -20 -20 -18 -19 -19 -18 -17 -17 -16 -14 -11 -8 -11 -10 -10 -11 -11 -11 -12 -12 -12 -11 -10 -11 -12 -15 -16 -16 -17 -19 -17 -17 -17 -17 -18 -17 -17 -17 -17 -17 -17 -17 -17 -17 -17 -17 -17 -17 -16 -16 -16 -16 -15 -15 -15 -15 -14 -15 -15 -15 -15 -16 -16 -16 -16 -15 -15 -15 -15 -15 -15
-22 -20 -21 -21 -20 -19 -19 -19 -19 -19 -20 -20 -20 -19 -19 -19 -19 -19 -19 -18 -17 -17 -16 -16 -15 -12 -11 -10 -10 -10 -12 -13 -14 -13 -11 -10 -10 -11 -16 -17 -17 -17 -17 -16 -16 -16 -17 -17 -17 -17 -17 -17 -17 -17 -17 -17 -17 -17 -17 -17 -17 -17 -17 -17 -16 -16 -15 -15 -15 -15 -14 -15 -15 -15 -16 -16 -16 -16 -16 -15 -15 -15 -15 -15 -15
-21 -19 -19 -21 -20 -20 -20 -19 -20 -20 -18 -18 -19 -20 -19 -19 -18 -20 -19 -18 -17 -18 -17 -16 -15 -15 -12 -15 -14 -13 -14 -15 -14 -13 -10 -9 -10 -13 -18 -17 -17 -17 -17 -17 -16 -17 -17 -17 -17 -17 -17 -17 -17 -17 -17 -17 -17 -17 -16 -17 -17 -17 -17 -17 -15 -15 -16 -16 -16 -16 -16 -16 -16 -16 -16 -17 -16 -16 -16 -15 -15 -15 -15 -15 -14
-23 -21 -21 -22 -21 -21 -21 -21 -21 -18 -20 -19 -20 -20 -20 -20 -20 -20 -19 -19 -18 -17 -17 -17 -15 -16 -16 -16 -13 -15 -17 -16 -15 -15 -13 -13 -16 -19 -17 -17 -17 -17 -17 -17 -17 -17 -17 -17 -17 -17 -17 -17 -17 -17 -17 -17 -17 -17 -17 -17 -17 -17 -15 -15 -15 -16 -16 -16 -16 -16 -16 -16 -16 -16 -16 -17 -17 -16 -16 -16 -16 -16 -16 -16 -16
-22 -19 -18 -18 -18 -21 -21 -20 -20 -20 -20 -19 -20 -20 -20 -20 -21 -20 -20 -20 -19 -18 -17 -17 -17 -17 -16 -15 -16 -16 -18 -20 -20 -20 -18 -17 -16 -17 -17 -17 -17 -17 -17 -17 -17 -17 -17 -17 -17 -17 -17 -17 -17 -17 -17 -17 -17 -17 -17 -18 -18 -17 -17 -17 -17 -16 -16 -16 -16 -16 -16 -16 -16 -17 -17 -17 -17 -17 -16 -16 -16 -16 -17 -17 -17
-19 -22 -20 -18 -18 -19 -20 -20 -21 -21 -20 -21 -21 -21 -21 -21 -22 -22 -21 -21 -19 -19 -18 -18 -18 -17 -16 -17 -17 -19 -20 -21 -21 -20 -19 -18 -18 -17 -17 -17 -17 -17 -17 -17 -17 -17 -17 -16 -16 -17 -17 -17 -17 -17 -17 -17 -17 -17 -17 -17 -17 -17 -17 -17 -17 -17 -17 -16 -16 -16 -16 -17 -17 -17 -17 -17 -17 -16 -16 -17 -17 -16 -17 -17 -16
-20 -18 -19 -18 -19 -21 -21 -21 -21 -22 -21 -21 -21 -22 -22 -21 -21 -21 -21 -20 -19 -19 -19 -18 -18 -17 -16 -15 -14 -16 -22 -21 -21 -20 -20 -19 -18 -18 -17 -17 -17 -17 -17 -17 -16 -16 -17 -17 -17 -17 -17 -17 -16 -16 -17 -17 -17 -17 -17 -17 -17 -17 -17 -17 -17 -17 -17 -17 -17 -17 -17 -17 -18 -18 -18 -18 -15 -16 -17 -17 -17 -17 -17 -17 -17
-21 -19 -19 -19 -21 -21 -20 -20 -20 -21 -22 -21 -22 -21 -21 -21 -22 -22 -21 -20 -19 -19 -18 -18 -18 -17 -15 -14 -14 -14 -17 -19 -20 -20 -19 -18 -18 -17 -17 -17 -17 -17 -16 -16 -16 -16 -17 -17 -17 -17 -17 -17 -17 -17 -17 -17 -18 -18 -18 -18 -18 -18 -18 -18 -18 -18 -18 -17 -17 -18 -18 -18 -18 -18 -18 -16 -18 -18 -18 -18 -18 -18 -18 -18 -18
-22 -20 -19 -19 -19 -20 -21 -22 -21 -22 -22 -22 -21 -20 -20 -22 -22 -21 -19 -19 -18 -18 -18 -19 -18 -17 -17 -17 -16 -17 -18 -19 -20 -19 -18 -17 -17 -17 -17 -17 -16 -16 -16 -16 -15 -16 -16 -16 -16 -17 -17 -17 -17 -17 -17 -18 -18 -18 -18 -18 -18 -19 -19 -18 -18 -18 -18 -18 -18 -18 -19 -19 -19 -20 -19 -19 -19 -19 -19 -19 -19 -19 -19 -19 -19
-21 -20 -20 -20 -21 -21 -21 -22 -22 -21 -22 -21 -21 -22 -21 -21 -20 -21 -19 -19 -19 -18 -18 -18 -18 -18 -18 -17 -17 -18 -17 -17 -17 -17 -17 -18 -18 -17 -17 -16 -16 -16 -16 -16 -16 -16 -16 -16 -16 -16 -16 -16 -16 -17 -17 -17 -17 -18 -18 -18 -18 -18 -18 -19 -19 -19 -19 -19 -19 -19 -20 -21 -20 -21 -20 -19 -20 -20 -20 -20 -19 -20 -20 -20 -19
-21 -19 -20 -21 -21 -21 -21 -21 -22 -22 -21 -21 -22 -19 -19 -19 -19 -19 -18 -18 -18 -18 -18 -18 -18 -18 -18 -18 -18 -18 -18 -18 -18 -18 -18 -17 -17 -17 -17 -16 -16 -16 -16 -16 -16 -16 -16 -16 -16 -17 -17 -16 -16 -17 -17 -17 -17 -17 -17 -18 -18 -19 -19 -19 -19 -18 -18 -18 -19 -20 -21 -22 -23 -22 -22 -21 -21 -21 -20 -20 -20 -19 -20 -20 -21
-20 -20 -20 -20 -20 -20 -21 -22 -21 -22 -23 -22 -21 -20 -19 -19 -18 -19 -18 -18 -18 -18 -19 -19 -19 -19 -19 -19 -18 -18 -17 -18 -17 -17 -17 -17 -17 -17 -16 -16 -16 -16 -16 -16 -16 -16 -16 -16 -17 -17 -17 -17 -17 -16 -16 -17 -17 -17 -17 -17 -17 -18 -17 -17 -17 -17 -18 -19 -20 -21 -22 -23 -23 -22 -22 -22 -21 -21 -21 -21 -21 -20 -21 -21 -20
-22 -21 -21 -21 -22 -21 -22 -22 -23 -23 -23 -22 -22 -21 -19 -19 -18 -18 -19 -18 -18 -19 -19 -19 -19 -19 -19 -18 -18 -18 -17 -17 -17 -17 -17 -17 -17 -17 -17 -17 -16 -16 -16 -16 -16 -16 -16 -16 -16 -16 -16 -16 -16 -16 -16 -17 -17 -17 -16 -16 -16 -17 -17 -17 -17 -19 -20 -20 -20 -21 -23 -23 -24 -24 -23 -22 -22 -22 -22 -22 -21 -21 -21 -21 -21
-20 -21 -21 -21 -22 -22 -22 -22 -21 -21 -22 -21 -21 -20 -20 -19 -19 -19 -19 -19 -19 -19 -19 -18 -18 -18 -18 -18 -17 -17 -17 -17 -17 -17 -17 -17 -17 -16 -16 -16 -16 -16 -16 -16 -16 -16 -16 -16 -16 -16 -16 -16 -16 -16 -16 -16 -16 -16 -16 -16 -16 -17 -17 -17 -18 -20 -21 -21 -21 -21 -22 -23 -24 -23 -23 -23 -24 -23 -23 -23 -22 -21 -21 -20 -20
-20 -19 -21 -20 -21 -20 -21 -20 -22 -21 -21 -22 -20 -19 -19 -19 -20 -19 -19 -19 -18 -19 -18 -18 -18 -18 -18 -17 -17 -17 -17 -18 -17 -17 -17 -16 -16 -16 -16 -16 -17 -16 -16 -16 -16 -16 -16 -16 -16 -16 -16 -16 -16 -16 -16 -16 -16 -16 -17 -17 -16 -17 -17 -17 -18 -19 -19 -19 -20 -21 -22 -23 -23 -23 -23 -24 -23 -23 -23 -23 -22 -21 -21 -21 -21
-20 -20 -21 -21 -21 -21 -22 -22 -21 -22 -22 -22 -20 -20 -20 -20 -20 -20 -19 -19 -18 -18 -18 -18 -18 -18 -17 -17 -18 -17 -17 -18 -17 -17 -17 -16 -16 -16 -16 -16 -16 -16 -16 -16 -16 -16 -16 -16 -17 -17 -17 -17 -17 -16 -16 -16 -16 -16 -16 -16 -16 -16 -16 -17 -17 -18 -18 -19 -20 -21 -21 -22 -23 -24 -24 -24 -24 -23 -23 -22 -22 -21 -21 -22 -22
-20 -20 -22 -22 -23 -22 -22 -22 -21 -21 -21 -20 -20 -20 -20 -20 -19 -19 -19 -19 -19 -19 -18 -18 -18 -17 -18 -17 -18 -18 -18 -18 -17 -17 -17 -17 -17 -16 -16 -17 -17 -17 -17 -17 -17 -16 -16 -17 -16 -16 -17 -16 -16 -16 -16 -16 -16 -15 -15 -15 -15 -15 -16 -16 -17 -18 -18 -18 -19 -20 -21 -22 -23 -24 -24 -24 -23 -23 -22 -22 -22 -22 -22 -22 -21